Wind_Speed
27 26 26 23 19 21 22 20 18 15 14 13 11 10 11 9 7 4 4 2 4 8
27 25 24 22 21 22 21 19 16 15 15 15 13 13 14 13 10 8 10 9 13 13
26 27 25 23 22 21 20 19 16 15 15 14 13 14 13 11 11 11 10 11 13 12
27 26 24 23 21 21 18 18 16 16 16 16 15 14 14 13 12 11 11 13 13 12
22 22 24 24 21 19 18 19 17 15 18 18 17 17 16 13 12 13 14 13 12 11
20 21 23 25 22 20 19 19 18 18 20 18 19 17 16 14 14 14 14 12 12 9
16 19 20 21 23 23 20 18 18 19 18 18 18 17 15 14 14 13 12 11 11 10
10 10 11 12 14 14 17 17 17 18 18 17 16 15 14 14 13 12 11 11 11 10
8 9 10 11 13 14 15 16 17 17 16 15 15 13 12 12 12 12 11 11 10 11
4 7 8 10 12 14 15 15 15 15 14 13 12 11 10 11 11 10 10 11 12 12
4 6 8 10 11 12 13 12 12 12 11 10 9 9 9 9 10 11 11 11 11 12
3 5 7 8 9 10 9 9 9 8 9 9 7 7 7 9 10 11 11 11 11 11
3 5 6 6 7 7 7 7 7 6 5 6 5 4 4 4 7 12 13 12 10 10
3 5 5 7 7 7 7 7 7 6 5 4 3 4 10 10 14 16 13 11 12 11
Wind_Direction
200 198 203 209 215 206 203 206 210 196 198 203 199 182 197 202 202 210 238 274 262 260
197 202 205 207 207 202 206 198 205 217 206 201 202 211 202 201 206 218 247 254 241 237
206 208 208 209 219 220 215 232 215 200 203 210 212 220 222 227 228 228 229 229 235 232
211 219 225 225 225 225 215 200 205 215 222 225 228 233 238 240 230 226 228 224 228 236
220 221 222 215 212 213 217 219 223 226 237 238 235 236 228 224 230 231 228 231 235 240
227 229 227 223 224 218 226 234 236 244 240 242 235 225 222 225 227 229 234 237 244 252
224 228 231 234 235 231 235 233 231 230 233 230 226 221 222 223 225 228 234 240 252 255
234 234 233 232 229 227 228 225 231 224 221 221 222 224 223 223 226 233 238 244 252 260
226 223 218 217 218 215 215 211 209 214 218 219 221 222 223 225 231 236 243 254 259 261
220 213 201 200 201 203 204 205 209 212 214 217 222 220 222 232 240 248 255 259 262 262
204 201 198 200 204 201 198 203 209 213 218 224 225 227 233 238 250 250 252 261 265 264
207 198 197 199 197 197 204 210 215 221 225 229 231 234 232 234 239 249 263 270 265 264
212 201 201 204 203 208 210 210 205 203 206 210 208 211 227 253 283 267 264 263 269 269
188 180 176 172 172 171 170 168 165 166 163 174 195 253 274 258 265 270 272 273 275 278
Height
780 786 788 791 791 793 795 801 805 807 810 813 814 815 819 822 824 824 826 825 827 832
780 785 788 791 792 795 798 802 806 806 807 812 812 816 817 819 818 817 823 821 827 828
777 782 785 788 790 794 796 799 802 804 807 811 812 815 815 814 814 816 818 821 826 827
774 779 782 785 789 792 795 797 800 802 805 806 808 811 811 813 815 815 817 821 823 825
771 775 779 782 785 788 791 793 796 797 800 803 803 805 808 809 812 815 818 819 821 822
768 771 774 778 781 783 786 789 790 794 798 799 802 803 805 807 809 812 816 817 819 819
765 768 770 774 777 780 782 785 788 791 794 797 800 801 803 805 807 809 812 814 815 815
765 767 769 771 775 777 780 782 785 789 792 795 797 799 801 803 805 807 809 811 812 812
762 764 766 769 772 775 778 781 784 787 790 792 795 797 799 801 803 804 804 807 808 810
761 763 765 769 772 775 777 779 782 785 787 790 793 795 796 799 800 801 803 805 806 807
761 763 766 769 771 773 776 778 781 783 786 789 791 793 795 796 797 800 802 803 803 803
762 764 766 768 770 773 775 777 779 782 785 787 789 791 793 795 797 798 799 800 801 800
762 764 766 768 770 773 775 777 780 783 785 787 789 791 792 793 794 796 796 797 796 797
763 764 766 768 770 772 775 777 779 781 783 785 787 788 789 791 792 792 792 793 793 794